Location: Newark
(13.6797°N, 8.5297°E)
Time: 18:42:04
(UTC+00:00)

Courier 1B Rocket - Pass Details

Date: 18 January 2020
Orbit: 920 x 1202 km, 28.2° (Epoch: 25 February)

Event Time Altitude Azimuth Distance (km) Brightness Sun altitude
Rises 08:28:11 0° 201° (SSW) 4,009 8.4 32.5°
Reaches altitude 10° 08:33:10 10° 174° (S) 2,987 8.2 33.5°
Maximum altitude 08:36:01 12° 151° (SSE) 2,764 8.6 34.0°
Drops below altitude 10° 08:38:47 10° 128° (SE) 2,907 8.9 34.6°
Sets 08:43:26 0° 100° (E) 3,788 8.9 35.5°
